Time,TemperatureF,DewpointF,PressureIn,WindDirection,WindDirectionDegrees,WindSpeedMPH,WindSpeedGustMPH,Humidity,HourlyPrecipIn,Conditions,Clouds,dailyrainin,SoftwareType,DateUTC
2013-05-19 00:00:00,48.0,-99.9,-100.00,SSW,196,3.0,4.0,-999,-99.99,,,-99.99,,2013-05-19 06:00:00,
2013-05-19 00:32:00,48.0,-99.9,-100.00,SSW,196,3.0,4.0,-999,-99.99,,,-99.99,,2013-05-19 06:32:00,
2013-05-19 00:42:00,48.0,-99.9,-100.00,SSW,196,3.0,4.0,-999,-99.99,,,-99.99,,2013-05-19 06:42:00,
2013-05-19 00:52:00,48.0,-99.9,-100.00,SSW,196,3.0,4.0,-999,-99.99,,,-99.99,,2013-05-19 06:52:00,
2013-05-19 01:00:00,48.0,-99.9,-100.00,SSE,162,4.0,5.0,-999,-99.99,,,-99.99,,2013-05-19 07:00:00,
2013-05-19 01:32:00,48.0,-99.9,-100.00,SSE,162,4.0,5.0,-999,-99.99,,,-99.99,,2013-05-19 07:32:00,
2013-05-19 01:42:00,48.0,-99.9,-100.00,SSE,162,4.0,5.0,-999,-99.99,,,-99.99,,2013-05-19 07:42:00,
2013-05-19 01:52:00,48.0,-99.9,-100.00,SSE,162,4.0,5.0,-999,-99.99,,,-99.99,,2013-05-19 07:52:00,
2013-05-19 02:00:00,48.0,-99.9,-100.00,East,84,1.0,2.0,-999,-99.99,,,-99.99,,2013-05-19 08:00:00,
2013-05-19 02:32:00,48.0,-99.9,-100.00,East,84,1.0,2.0,-999,-99.99,,,-99.99,,2013-05-19 08:32:00,
2013-05-19 02:42:00,48.0,-99.9,-100.00,East,84,1.0,2.0,-999,-99.99,,,-99.99,,2013-05-19 08:42:00,
2013-05-19 02:52:00,48.0,-99.9,-100.00,East,84,1.0,2.0,-999,-99.99,,,-99.99,,2013-05-19 08:52:00,
2013-05-19 03:00:00,48.0,-99.9,-100.00,East,100,1.0,2.0,-999,-99.99,,,-99.99,,2013-05-19 09:00:00,
2013-05-19 03:33:00,48.0,-99.9,-100.00,East,100,1.0,2.0,-999,-99.99,,,-99.99,,2013-05-19 09:33:00,
2013-05-19 03:43:00,48.0,-99.9,-100.00,East,100,1.0,2.0,-999,-99.99,,,-99.99,,2013-05-19 09:43:00,
2013-05-19 03:53:00,48.0,-99.9,-100.00,East,100,1.0,2.0,-999,-99.99,,,-99.99,,2013-05-19 09:53:00,
2013-05-19 05:00:00,48.0,-99.9,-100.00,WSW,247,4.0,5.0,-999,-99.99,,,-99.99,,2013-05-19 11:00:00,
2013-05-19 05:32:00,48.0,-99.9,-100.00,WSW,247,4.0,5.0,-999,-99.99,,,-99.99,,2013-05-19 11:32:00,
2013-05-19 05:42:00,48.0,-99.9,-100.00,WSW,247,4.0,5.0,-999,-99.99,,,-99.99,,2013-05-19 11:42:00,
2013-05-19 05:53:00,48.0,-99.9,-100.00,WSW,247,4.0,5.0,-999,-99.99,,,-99.99,,2013-05-19 11:53:00,
2013-05-19 06:00:00,48.0,-99.9,-100.00,SW,217,8.0,10.0,-999,-99.99,,,-99.99,,2013-05-19 12:00:00,
2013-05-19 06:32:00,48.0,-99.9,-100.00,SW,217,8.0,10.0,-999,-99.99,,,-99.99,,2013-05-19 12:32:00,
2013-05-19 06:42:00,48.0,-99.9,-100.00,SW,217,8.0,10.0,-999,-99.99,,,-99.99,,2013-05-19 12:42:00,
2013-05-19 06:52:00,48.0,-99.9,-100.00,SW,217,8.0,10.0,-999,-99.99,,,-99.99,,2013-05-19 12:52:00,
2013-05-19 08:00:00,49.0,-99.9,-100.00,SW,233,2.0,2.0,-999,-99.99,,,-99.99,,2013-05-19 14:00:00,
2013-05-19 08:32:00,49.0,-99.9,-100.00,SW,233,2.0,2.0,-999,-99.99,,,-99.99,,2013-05-19 14:32:00,
2013-05-19 08:42:00,49.0,-99.9,-100.00,SW,233,2.0,2.0,-999,-99.99,,,-99.99,,2013-05-19 14:42:00,
2013-05-19 08:52:00,49.0,-99.9,-100.00,SW,233,2.0,2.0,-999,-99.99,,,-99.99,,2013-05-19 14:52:00,
2013-05-19 09:00:00,50.0,-99.9,-100.00,ESE,120,7.0,9.0,-999,-99.99,,,-99.99,,2013-05-19 15:00:00,
2013-05-19 09:33:00,50.0,-99.9,-100.00,ESE,120,7.0,9.0,-999,-99.99,,,-99.99,,2013-05-19 15:33:00,
2013-05-19 09:43:00,50.0,-99.9,-100.00,ESE,120,7.0,9.0,-999,-99.99,,,-99.99,,2013-05-19 15:43:00,
2013-05-19 09:53:00,50.0,-99.9,-100.00,ESE,120,7.0,9.0,-999,-99.99,,,-99.99,,2013-05-19 15:53:00,
2013-05-19 10:00:00,53.0,-99.9,-100.00,NE,46,10.0,13.0,-999,-99.99,,,-99.99,,2013-05-19 16:00:00,
2013-05-19 10:33:00,53.0,-99.9,-100.00,NE,46,10.0,13.0,-999,-99.99,,,-99.99,,2013-05-19 16:33:00,
2013-05-19 10:42:00,53.0,-99.9,-100.00,NE,46,10.0,13.0,-999,-99.99,,,-99.99,,2013-05-19 16:42:00,
2013-05-19 10:53:00,53.0,-99.9,-100.00,NE,46,10.0,13.0,-999,-99.99,,,-99.99,,2013-05-19 16:53:00,
2013-05-19 11:00:00,49.0,-99.9,-100.00,NE,41,19.0,24.0,-999,-99.99,,,-99.99,,2013-05-19 17:00:00,
2013-05-19 11:32:00,49.0,-99.9,-100.00,NE,41,19.0,24.0,-999,-99.99,,,-99.99,,2013-05-19 17:32:00,
2013-05-19 11:43:00,49.0,-99.9,-100.00,NE,41,19.0,24.0,-999,-99.99,,,-99.99,,2013-05-19 17:43:00,
2013-05-19 11:52:00,49.0,-99.9,-100.00,NE,41,19.0,24.0,-999,-99.99,,,-99.99,,2013-05-19 17:52:00,
2013-05-19 12:00:00,48.0,-99.9,-100.00,NNE,33,15.0,21.0,-999,-99.99,,,-99.99,,2013-05-19 18:00:00,
2013-05-19 12:32:00,48.0,-99.9,-100.00,NNE,33,15.0,21.0,-999,-99.99,,,-99.99,,2013-05-19 18:32:00,
2013-05-19 12:43:00,48.0,-99.9,-100.00,NNE,33,15.0,21.0,-999,-99.99,,,-99.99,,2013-05-19 18:43:00,
2013-05-19 12:53:00,48.0,-99.9,-100.00,NNE,33,15.0,21.0,-999,-99.99,,,-99.99,,2013-05-19 18:53:00,
2013-05-19 13:00:00,51.0,-99.9,-100.00,NE,36,18.0,21.0,-999,-99.99,,,-99.99,,2013-05-19 19:00:00,
2013-05-19 13:32:00,51.0,-99.9,-100.00,NE,36,18.0,21.0,-999,-99.99,,,-99.99,,2013-05-19 19:32:00,
2013-05-19 13:42:00,51.0,-99.9,-100.00,NE,36,18.0,21.0,-999,-99.99,,,-99.99,,2013-05-19 19:42:00,
2013-05-19 13:53:00,51.0,-99.9,-100.00,NE,36,18.0,21.0,-999,-99.99,,,-99.99,,2013-05-19 19:53:00,
2013-05-19 14:00:00,49.0,-99.9,-100.00,NE,42,18.0,22.0,-999,-99.99,,,-99.99,,2013-05-19 20:00:00,
2013-05-19 14:32:00,49.0,-99.9,-100.00,NE,42,18.0,22.0,-999,-99.99,,,-99.99,,2013-05-19 20:32:00,
2013-05-19 14:42:00,49.0,-99.9,-100.00,NE,42,18.0,22.0,-999,-99.99,,,-99.99,,2013-05-19 20:42:00,
2013-05-19 14:52:00,49.0,-99.9,-100.00,NE,42,18.0,22.0,-999,-99.99,,,-99.99,,2013-05-19 20:52:00,
2013-05-19 15:00:00,48.0,-99.9,-100.00,ENE,61,13.0,16.0,-999,-99.99,,,-99.99,,2013-05-19 21:00:00,
2013-05-19 15:32:00,48.0,-99.9,-100.00,ENE,61,13.0,16.0,-999,-99.99,,,-99.99,,2013-05-19 21:32:00,
2013-05-19 15:43:00,48.0,-99.9,-100.00,ENE,61,13.0,16.0,-999,-99.99,,,-99.99,,2013-05-19 21:43:00,
2013-05-19 15:53:00,48.0,-99.9,-100.00,ENE,61,13.0,16.0,-999,-99.99,,,-99.99,,2013-05-19 21:53:00,
2013-05-19 16:00:00,50.0,-99.9,-100.00,East,83,4.0,5.0,-999,-99.99,,,-99.99,,2013-05-19 22:00:00,
2013-05-19 16:33:00,50.0,-99.9,-100.00,East,83,4.0,5.0,-999,-99.99,,,-99.99,,2013-05-19 22:33:00,
2013-05-19 16:43:00,50.0,-99.9,-100.00,East,83,4.0,5.0,-999,-99.99,,,-99.99,,2013-05-19 22:43:00,
2013-05-19 16:53:00,50.0,-99.9,-100.00,East,83,4.0,5.0,-999,-99.99,,,-99.99,,2013-05-19 22:53:00,
2013-05-19 17:00:00,51.0,-99.9,-100.00,SE,126,6.0,8.0,-999,-99.99,,,-99.99,,2013-05-19 23:00:00,
2013-05-19 17:32:00,51.0,-99.9,-100.00,SE,126,6.0,8.0,-999,-99.99,,,-99.99,,2013-05-19 23:32:00,
2013-05-19 17:42:00,51.0,-99.9,-100.00,SE,126,6.0,8.0,-999,-99.99,,,-99.99,,2013-05-19 23:42:00,
2013-05-19 17:53:00,51.0,-99.9,-100.00,SE,126,6.0,8.0,-999,-99.99,,,-99.99,,2013-05-19 23:53:00,
2013-05-19 18:00:00,49.0,-99.9,-100.00,ESE,117,5.0,6.0,-999,-99.99,,,-99.99,,2013-05-20 00:00:00,
2013-05-19 18:32:00,49.0,-99.9,-100.00,ESE,117,5.0,6.0,-999,-99.99,,,-99.99,,2013-05-20 00:32:00,
2013-05-19 18:42:00,49.0,-99.9,-100.00,ESE,117,5.0,6.0,-999,-99.99,,,-99.99,,2013-05-20 00:42:00,
2013-05-19 18:52:00,49.0,-99.9,-100.00,ESE,117,5.0,6.0,-999,-99.99,,,-99.99,,2013-05-20 00:52:00,
2013-05-19 19:00:00,49.0,-99.9,-100.00,SSE,154,5.0,5.0,-999,-99.99,,,-99.99,,2013-05-20 01:00:00,
2013-05-19 19:32:00,49.0,-99.9,-100.00,SSE,154,5.0,5.0,-999,-99.99,,,-99.99,,2013-05-20 01:32:00,
2013-05-19 19:42:00,49.0,-99.9,-100.00,SSE,154,5.0,5.0,-999,-99.99,,,-99.99,,2013-05-20 01:42:00,
2013-05-19 19:52:00,49.0,-99.9,-100.00,SSE,154,5.0,5.0,-999,-99.99,,,-99.99,,2013-05-20 01:52:00,
2013-05-19 20:00:00,48.0,-99.9,-100.00,SSE,159,4.0,4.0,-999,-99.99,,,-99.99,,2013-05-20 02:00:00,
2013-05-19 20:32:00,48.0,-99.9,-100.00,SSE,159,4.0,4.0,-999,-99.99,,,-99.99,,2013-05-20 02:32:00,
2013-05-19 20:42:00,48.0,-99.9,-100.00,SSE,159,4.0,4.0,-999,-99.99,,,-99.99,,2013-05-20 02:42:00,
2013-05-19 20:52:00,48.0,-99.9,-100.00,SSE,159,4.0,4.0,-999,-99.99,,,-99.99,,2013-05-20 02:52:00,
2013-05-19 21:00:00,47.0,-99.9,-100.00,SE,146,4.0,5.0,-999,-99.99,,,-99.99,,2013-05-20 03:00:00,
2013-05-19 21:33:00,47.0,-99.9,-100.00,SE,146,4.0,5.0,-999,-99.99,,,-99.99,,2013-05-20 03:33:00,
2013-05-19 21:43:00,47.0,-99.9,-100.00,SE,146,4.0,5.0,-999,-99.99,,,-99.99,,2013-05-20 03:43:00,
2013-05-19 21:53:00,47.0,-99.9,-100.00,SE,146,4.0,5.0,-999,-99.99,,,-99.99,,2013-05-20 03:53:00,
2013-05-19 22:00:00,48.0,-99.9,-100.00,SW,230,4.0,4.0,-999,-99.99,,,-99.99,,2013-05-20 04:00:00,
2013-05-19 22:33:00,48.0,-99.9,-100.00,SW,230,4.0,4.0,-999,-99.99,,,-99.99,,2013-05-20 04:33:00,
2013-05-19 22:43:00,48.0,-99.9,-100.00,SW,230,4.0,4.0,-999,-99.99,,,-99.99,,2013-05-20 04:43:00,
2013-05-19 22:53:00,48.0,-99.9,-100.00,SW,230,4.0,4.0,-999,-99.99,,,-99.99,,2013-05-20 04:53:00,
2013-05-19 23:00:00,48.0,-99.9,-100.00,SW,230,7.0,8.0,-999,-99.99,,,-99.99,,2013-05-20 05:00:00,
2013-05-19 23:32:00,48.0,-99.9,-100.00,SW,230,7.0,8.0,-999,-99.99,,,-99.99,,2013-05-20 05:32:00,
2013-05-19 23:42:00,48.0,-99.9,-100.00,SW,230,7.0,8.0,-999,-99.99,,,-99.99,,2013-05-20 05:42:00,
2013-05-19 23:52:00,48.0,-99.9,-100.00,SW,230,7.0,8.0,-999,-99.99,,,-99.99,,2013-05-20 05:52:00,